Regional Weather Roundup
Issued by NWS

Home | Current Version | Previous Version | Graphics & Text | Print | Product List | Glossary On
Versions: 1 2 3 4 5 6 7 8 9 10 11 12 13 14 15 16 17 18 19 20 21 22 23 24 25 26 27 28 29 30 31 32 33 34 35 36 37 38 39 40 41 42 43 44 45 46 47 48 49 50
000
ASUS43 KIND 301609
RWRIN

WEATHER ROUNDUP FOR INDIANA
NATIONAL WEATHER SERVICE INDIANAPOLIS IN
1200 PM EDT THU JUL 30 2015

NOTE: "FAIR" INDICATES FEW OR NO CLOUDS BELOW 12,000 FEET WITH NO
SIGNIFICANT WEATHER AND/OR OBSTRUCTIONS TO VISIBILITY.

* - STATION DOES NOT REPORT WEATHER SUCH AS PRECIPITATION OR FOG.

+ - STATION NOT QUALITY CONTROLLED BY THE NATIONAL WEATHER SERVICE.
    USE DATA WITH CAUTION...ESPECIALLY DEWPOINT AND RELATIVE
    HUMIDITY OBSERVATIONS.

INZ001>003-010>013-019-020-301700-
NORTHWEST INDIANA

CITY           SKY/WX    TMP DP  RH WIND       PRES   REMARKS
GARY /AIRPORT/ SUNNY     82  57  42 NW14      30.07S
KNOX *+        SUNNY     79  55  44 NW9G17    30.07R
LA PORTE +     SUNNY     82  59  45 NW8       30.08R
MICHIGAN CITY+ SUNNY     77  57  50 W8        30.07S
MONTICELLO +   SUNNY     80  62  55 NW8       30.08R
RENSSELAER +   SUNNY     79  63  57 W7        30.09S
VALPARAISO     SUNNY     81  55  40 NW8G20    30.08R

$$

LMZ046-743>745-301700-
SOUTHERN LAKE MICHIGAN

STATION/POSITION TIME  TEMP    WIND        PRES    WAVE
                       AIR SEA DIR/SP/G            HT
                 (UTC) (F)     (DEG/KT/KT) (MB)    (FT)
BURNS HARBOR     1500   73     270/  8/ 10 1018.3S
MICHIGAN CITY    1500   72     240/ 12/ 14   N/A
5NW MICH CITY    1600   73 73  280/  8/ 12   N/A     3

$$

INZ004-005-014>016-021>024-301700-
NORTH CENTRAL INDIANA

CITY           SKY/WX    TMP DP  RH WIND       PRES   REMARKS
ELKHART        SUNNY     81  55  41 NW12G17   30.05S
GOSHEN         SUNNY     79  61  53 NW14      30.05S
LOGANSPORT +   SUNNY     81  52  36 NW7       30.09S
PERU/GRISSOM   SUNNY     80  59  48 NW8       30.07S
ROCHESTER +    SUNNY     81  57  44 NW10      30.08R
SOUTH BEND     SUNNY     81  57  43 NW13      30.06S
WARSAW +       SUNNY     81  61  50 W10       30.07R

$$

INZ006>009-017-018-025>027-301700-
NORTHEAST INDIANA

CITY           SKY/WX    TMP DP  RH WIND       PRES   REMARKS
ANGOLA *+      SUNNY     81  61  50 NW8       30.04R
AUBURN +       SUNNY     81  54  39 NW9G18    30.06R
FORT WAYNE     MOSUNNY   81  59  47 NW9       30.06S
HUNTINGTON +   SUNNY     79  60  52 W6        30.06S

$$

INZ028-029-035-036-043>045-051>053-301700-
WEST CENTRAL INDIANA

CITY           SKY/WX    TMP DP  RH WIND       PRES   REMARKS
CRAWFORDSVL +  SUNNY     76  58  53 W5          N/A
GREENCASTLE +  SUNNY     79  55  44 N6        30.13R
LAFAYETTE      SUNNY     80  60  50 NW8       30.09R
TERRE HAUTE    SUNNY     81  60  48 NW8       30.13R

$$

INZ030>032-037>040-046>048-054>057-064-065-301700-
CENTRAL INDIANA

CITY           SKY/WX    TMP DP  RH WIND       PRES   REMARKS
ANDERSON       SUNNY     79  54  41 W12       30.10
FISHERS *+     SUNNY     79  61  53 N6        30.10
FRANKFORT +    SUNNY     80  64  56 W5        30.12S
GREENWOOD *+   SUNNY     81  54  39 NW7       30.11R
INDIANAPOLIS   MOSUNNY   82  58  43 NW12      30.10R
-EAGLE CREEK   SUNNY     81  59  47 NW6       30.10S
KOKOMO *+      SUNNY     81  61  50 NW14      30.08S
MARION +       SUNNY     78  58  50 NW7       30.09S
MT COMFORT *+  SUNNY     81  50  34 NW9       30.11R
SHELBYVILLE    SUNNY     82  60  47 VRB5      30.10R
ZIONSVILLE +   SUNNY     79  60  51 NW3       30.12R

$$

INZ033-034-041-042-049-050-058-059-301700-
EAST CENTRAL INDIANA

CITY           SKY/WX    TMP DP  RH WIND       PRES   REMARKS
MUNCIE         SUNNY     79  60  52 NW10      30.09R

$$

INZ060-061-067>069-081>083-085>088-301700-
SOUTHWEST INDIANA

CITY           SKY/WX    TMP DP  RH WIND       PRES   REMARKS
EVANSVILLE     SUNNY     84  61  45 NE10      30.14R
HUNTINGBURG *+ SUNNY     82  64  54 NW7       30.13S
WASHINGTON +   SUNNY     81  59  47 NW6       30.13R

$$

INZ062-063-066-070>080-084-089>092-301700-
SOUTH CENTRAL AND SOUTHEAST INDIANA

CITY           SKY/WX    TMP DP  RH WIND       PRES   REMARKS
BLOOMINGTON    SUNNY     80  63  55 NW5       30.13R
MADISON *+     SUNNY     81  59  47 N3        30.13S
NORTH VERNON + SUNNY     82  57  42 CALM      30.12R
SEYMOUR +      SUNNY     82  61  47 CALM      30.11R

$$



USA.gov is the U.S. government's official web portal to all federal, state and local government web resources and services.